Zurück zum Katalog

SL-8 R/B

AktivPO
NORAD 13354·ROCKET BODY·🇷🇺 Russia

Gestartet Jul 7, 1982 von Plesetsk Cosmodrome

Loading…

Nächste Überflüge (nächste 24 Stunden)

TLE

AktuellSource: Space-Track

Epoche: Sep 14, 2026, 05:19 UTC

1 13354U 82069B   26257.22184198  .00000049  00000-0  32944-4 0  9997
2 13354  82.9640 349.2174 0051782   7.1325 353.0558 13.79289867222687

Verfolge SL-8 R/B in Echtzeit mit AllMySat

Download on the App Store